View from above orbital plane
|
View from above satellite
|
Ground track
|
The orbit data is extracted from the following two-line orbital elements,
1 40071U 14037C 22178.73521050 .00000613 00000-0 84886-4 0 9998
2 40071 98.4083 47.9849 0007186 288.4515 71.5914 14.81883791430860
Epoch (UTC): | 27 June 2022 17:38:42 |
Eccentricity: | 0.0007186 |
inclination: | 98.4083° |
perigee height: | 618 km |
apogee height: | 628 km |
right ascension of ascending node: | 47.9849° |
argument of perigee: | 288.4515° |
revolutions per day: | 14.81883791 |
mean anomaly at epoch: | 71.5914° |
orbit number at epoch: | 43086 |
The dashed part of the orbit path shows where the satellite is in the earth's shadow,
|
|